Regional Weather Roundup
Issued by NWS Northern Indiana

Home | Current Version | Previous Version | Text Only | Print | Product List | Glossary Off
Versions: 1 2 3 4 5 6 7 8 9 10 11 12 13 14 15 16 17 18 19 20 21 22 23 24 25 26 27 28 29 30 31 32 33 34 35 36 37 38 39 40 41 42 43 44 45 46 47 48 49 50

000
ASUS43 KIWX 201310
RWRIWX

KIWX WEATHER ROUNDUP
NATIONAL WEATHER SERVICE NORTHERN INDIANA
900 AM EDT THU JUL 20 2017

NOTE: "FAIR" INDICATES FEW OR NO CLOUDS BELOW 12,000 FEET WITH NO
SIGNIFICANT WEATHER AND/OR OBSTRUCTIONS TO VISIBILITY.

* THESE STATIONS ARE NOT UNDER NWS QUALITY CONTROL. THEY ALSO MAY NOT
  REPORT WEATHER SUCH AS PRECIPITATION OR FOG.

INZ001>027-201400-
NORTHERN INDIANA

CITY           SKY/WX    TMP DP  RH WIND       PRES   REMARKS
GARY*          RAIN      72  70  94 SE6       30.09R
VALPARAISO     LGT RAIN  70  69  97 SE3       30.11R FOG
MICHIGAN CITY* RAIN      68  68 100 CALM      30.09F
LAPORTE*       TSTM      68  67  96 CALM      30.09F
KNOX*          CLOUDY    68  68 100 N5        30.10R
SOUTH BEND     RAIN      69  68  96 W8        30.11R
ELKHART*       LGT RAIN  70  66  88 SW5       30.09R
MONTICELLO*    FAIR      70  69  95 CALM      30.08R
LOGANSPORT*    FAIR      70  70 100 E3        30.10R
ROCHESTER*     LGT RAIN  72  72 100 N5        30.11R
WARSAW*        LGT RAIN  70  68  94 SW6       30.11R
AUBURN*        FAIR      73  64  73 SW5       30.09R
FORT WAYNE     CLOUDY    74  68  81 W9        30.10R
HUNTINGTON*    FAIR      72  70  95 CALM      30.10R
PERU/GRISSOM   MOSUNNY   72  72 100 CALM      30.09R

$$
INZ028>050-201400-
CENTRAL INDIANA

CITY           SKY/WX    TMP DP  RH WIND       PRES   REMARKS
LAFAYETTE      FAIR      73  70  90 CALM      30.06S
KOKOMO*        PTSUNNY   73  70  90 CALM      30.11R
MUNCIE*        FAIR      78  70  76 CALM      30.10S
INDIANAPOLIS   CLOUDY    77  72  84 S7        30.08R

$$
MIZ043>046-050>051-056>058-064>065-071>073-077>080-201400-
SOUTHWEST LOWER MICHIGAN

CITY           SKY/WX    TMP DP  RH WIND       PRES   REMARKS
BATTLE CREEK   FAIR      71  67  87 SW10      30.05R
BENTON HARBOR  RAIN      70  66  87 W8        30.06S FOG
COLDWATER*     FAIR      71  69  93 SW8       30.06R
HILLSDALE*     FAIR      72  64  78 SW9       30.04F
HOLLAND        LGT RAIN  71  66  84 W16       30.00F
GRAND RAPIDS   CLOUDY    70  69  97 W6        30.00F
KALAMAZOO      FAIR      72  65  78 SW10      30.05R
STURGIS*       FAIR      70  67  90 SW6       30.06S
THREE RIVERS*  FAIR      71  66  85 W8        30.06F

$$
OHZ001>008-015>018-024>025-201400-
NORTHWEST OHIO

CITY           SKY/WX    TMP DP  RH WIND       PRES   REMARKS
WAUSEON*       FAIR      77  68  73 VRB7G14   30.03F
DEFIANCE       FAIR      76  67  73 SW9       30.05R
FINDLAY        FAIR      78  71  79 SW10      30.05S
TOLEDO EXPRESS FAIR      77  70  79 W14       30.02R
TOLEDO METCALF FAIR      79  74  84 W13       30.03S
LIMA           PTSUNNY   76  73  91 W13       30.08S

$$
AND FOR LAKE MICHIGAN COASTAL AND OPEN LAKE BUOY OBSERVATIONS

STATION/POSITION TEMP    WIND        PRES    VSBY  WAVE
                 AIR SEA DIR/SP/G                  HT/PER
                 (F)     (DEG/KT/KT) (MB)    (MI)  (FT/S)

$$
&&




USA.gov is the U.S. government's official web portal to all federal, state and local government web resources and services.